Sigonella, Italy

2:10 AM CET on March 24, 2017 (GMT +0100)
Sigonella

Weather History for LICZ - November, 2013

Change the Weather History Date:

Thursday, November 7, 2013

  Actual Average Record
Temperature  
Mean Temperature 66 °F -  
Max Temperature 82 °F 67 °F 82 °F (2013)
Min Temperature 51 °F 48 °F 37 °F (2006)
Cooling Degree Days 2    
Growing Degree Days 16 (Base 50)    
Moisture  
Dew Point 58 °F    
Average Humidity 80    
Maximum Humidity 100    
Minimum Humidity 29    
Precipitation  
Precipitation 0.00 in 0.07 in - ()
Sea Level Pressure  
Sea Level Pressure 30.03 in    
Wind  
Wind Speed 4 mph ()    
Max Wind Speed 10 mph    
Max Gust Speed -    
Visibility 6.0 miles    
Events      
Averages and records for this station are not official NWS values.
T = Trace of Precipitation, MM = Missing Value Source: Averaged Metar Reports

Daily Weather History Graph

Daily Weather History Graph

Search for Another Location

Airport or City:

Trip Planner

Search our weather history database for the weather conditions in past years. The results will help you decide how hot, cold, wet, or windy it might be!

Date:

Astronomy

Nov. 07, 2013 Rise Set
Actual Time 6:31 AM CET 4:56 PM CET
Civil Twilight 6:03 AM CET 5:23 PM CET
Nautical Twilight 5:32 AM CET 5:54 PM CET
Astronomical Twilight 5:02 AM CET 6:25 PM CET
Moon 10:23 AM CET (11/7) 8:49 PM CET (11/7)
Length of Visible Light 11h 19m
Length of Day
10h 25m
Waxing Crescent, 20% of the Moon is Illuminated
Nov 7
Waxing Crescent
Nov 10
First Quarter
Nov 17
Full
Nov 25
Last Quarter
Dec 3
New

Hourly Weather History & Observations

Time (CET) Temp. Heat Index Dew Point Humidity Pressure Visibility Wind Dir Wind Speed Gust Speed Precip Events Conditions
12:55 AM 59.0 °F - 55.4 °F 88% 29.89 in - WNW 4.6 mph - N/A   Clear
1:00 AM 59 °F - 56 °F 87% 29.92 in 6 mi WNW 4.6 mph - -  
1:55 AM 57.2 °F - 57.2 °F 100% 29.92 in - WNW 3.5 mph - N/A   Clear
2:55 AM 57.2 °F - 57.2 °F 100% 29.92 in - WSW 3.5 mph - N/A   Clear
3:55 AM 59.0 °F - 57.2 °F 94% 29.92 in - WNW 5.8 mph - N/A   Clear
4:00 AM 58 °F - 57 °F 94% 29.94 in 6 mi WNW 5.8 mph - -  
4:55 AM 55.4 °F - 55.4 °F 100% 29.95 in - NNW 4.6 mph - N/A   Clear
5:55 AM 53.6 °F - 53.6 °F 100% 29.95 in - NNW 4.6 mph - N/A   Clear
6:55 AM 51.8 °F - 51.8 °F 100% 29.98 in - WSW 2.3 mph - N/A   Clear
7:55 AM 57.2 °F - 57.2 °F 100% 30.01 in - North 2.3 mph - N/A   Clear
8:55 AM 64.4 °F - 57.2 °F 77% 30.04 in - NW 2.3 mph - N/A   Clear
9:55 AM 73.4 °F - 62.6 °F 69% 30.04 in - SSE 2.3 mph - N/A   Clear
10:00 AM 74 °F - 62 °F 58% 30.05 in 6 mi SSE 2.3 mph - -  
10:55 AM 77.0 °F - 57.2 °F 50% 30.06 in - NE 3.5 mph - N/A   Clear
11:55 AM 78.8 °F - 55.4 °F 44% 30.04 in - North 3.5 mph - N/A   Clear
12:55 PM 80.6 °F 80.3 °F 53.6 °F 39% 30.04 in - SW 2.3 mph - N/A   Clear
1:00 PM 81 °F - 54 °F 29% 30.04 in 6 mi SW 2.3 mph - -   Clear
1:55 PM 78.8 °F - 50.0 °F 36% 30.04 in - ESE 4.6 mph - N/A   Clear
2:55 PM 78.8 °F - 55.4 °F 44% 30.04 in - East 9.2 mph - N/A   Clear
3:55 PM 73.4 °F - 57.2 °F 57% 30.04 in - East 10.4 mph - N/A   Clear
4:00 PM 74 °F - 57 °F 45% 30.05 in 6 mi East 10.4 mph - -   Clear
4:55 PM 69.8 °F - 60.8 °F 73% 30.04 in - East 8.1 mph - N/A   Clear
5:55 PM 66.2 °F - 66.2 °F 100% 30.06 in - East 4.6 mph - N/A   Clear
6:55 PM 64.4 °F - 64.4 °F 100% 30.09 in - East 2.3 mph - N/A   Clear
7:00 PM 65 °F - 65 °F 100% 30.11 in 6 mi East 2.3 mph - -  
7:55 PM 64.4 °F - 64.4 °F 100% 30.09 in - ESE 2.3 mph - N/A   Clear
8:55 PM 60.8 °F - 60.8 °F 100% 30.12 in - WNW 2.3 mph - N/A   Clear
9:55 PM 60.8 °F - 60.8 °F 100% 30.12 in - WNW 4.6 mph - N/A   Clear
10:00 PM 60 °F - 60 °F 100% 30.14 in 6 mi WNW 4.6 mph - -  
10:55 PM 57.2 °F - 57.2 °F 100% 30.12 in - WNW 2.3 mph - N/A   Clear
11:55 PM 55.4 °F - 55.4 °F 100% 30.12 in - WSW 4.6 mph - N/A   Clear